[TLELIST] Archives

 

[TLELIST] Current TLEs

December 31st 2024 PDT

HST 1 20580U 90037B 24365.60328680 .00014464 00000-0 60514-3 0 9995 2 20580 28.4686 105.1058 0002610 45.3840 314.6966 15.22073435706947 ISS (ZARYA) 1 25544U 98067A 24366.44037236 .00026433 00000-0 46080-3 0 9999 2 25544 51.6401 58.0461 0005884 28.2226 50.1244 15.50522660489144 CXO 1 25867U 99040B 25002.83766059 .00000687 00000-0 00000+0 0 9993 2 25867 45.7235 138.6980 8657244 305.7522 0.4087 0.37800605 26478 ...Continue Reading

[TLELIST] Current TLEs

December 30th 2024 PDT

HST 1 20580U 90037B 24365.01316724 .00012748 00000-0 53269-3 0 9998 2 20580 28.4683 109.0859 0002561 39.6785 320.3996 15.22056173707112 ISS (ZARYA) 1 25544U 98067A 24365.39512187 .00026441 00000-0 46185-3 0 9990 2 25544 51.6381 63.2347 0006000 23.2492 336.8768 15.50465299488983 CXO 1 25867U 99040B 24366.19299662 .00000642 00000-0 00000-0 0 9997 2 25867 45.6674 138.8374 8661043 305.7101 0.2908 0.37802720 15319 ...Continue Reading

[TLELIST] Current TLEs

December 29th 2024 PDT

HST 1 20580U 90037B 24363.63619758 .00011342 00000-0 47360-3 0 9991 2 20580 28.4679 118.3726 0002458 24.9503 335.1209 15.22020501706906 ISS (ZARYA) 1 25544U 98067A 24364.46140046 .00025679 00000-0 44965-3 0 9994 2 25544 51.6390 67.8566 0005707 20.6638 164.3696 15.50414415488834 CXO 1 25867U 99040B 24366.19299662 .00000642 00000-0 00000-0 0 9997 2 25867 45.6674 138.8374 8661043 305.7101 0.2908 0.37802720 15319 ...Continue Reading

[TLELIST] Current TLEs

December 28th 2024 PDT

HST 1 20580U 90037B 24362.71820039 .00011545 00000-0 48246-3 0 9994 2 20580 28.4675 124.5630 0002343 15.4360 344.6305 15.22001386706502 ISS (ZARYA) 1 25544U 98067A 24363.22075943 .00029900 00000-0 52305-3 0 9998 2 25544 51.6398 74.0082 0005933 14.3520 81.6203 15.50355175488647 CXO 1 25867U 99040B 24363.54907146 .00000542 00000-0 00000-0 0 9995 2 25867 45.6069 138.9847 8664881 305.6489 0.2812 0.37806673 15296 ...Continue Reading

[TLELIST] Current TLEs

December 27th 2024 PDT

HST 1 20580U 90037B 24361.66904699 .00011589 00000-0 48470-3 0 9999 2 20580 28.4671 131.6385 0002262 4.0046 356.0566 15.21978481706345 ISS (ZARYA) 1 25544U 98067A 24361.72100155 .00025292 00000-0 44526-3 0 9991 2 25544 51.6378 81.4466 0005783 8.5494 351.5592 15.50270151488416 CXO 1 25867U 99040B 24363.54907146 .00000542 00000-0 00000-0 0 9995 2 25867 45.6069 138.9847 8664881 305.6489 0.2812 0.37806673 15296 ...Continue Reading

[TLELIST] Current TLEs

December 26th 2024 PDT

HST 1 20580U 90037B 24361.07889100 .00011096 00000-0 46393-3 0 9998 2 20580 28.4664 135.6170 0002165 357.1555 2.9026 15.21965119706254 ISS (ZARYA) 1 25544U 98067A 24361.26976194 .00022667 00000-0 40037-3 0 9990 2 25544 51.6376 83.6826 0005650 7.2326 352.8743 15.50245661488343 CXO 1 25867U 99040B 24363.54907146 .00000542 00000-0 00000-0 0 9995 2 25867 45.6069 138.9847 8664881 305.6489 0.2812 0.37806673 15296 ...Continue Reading

[TLELIST] Current TLEs

December 25th 2024 PDT

HST 1 20580U 90037B 24359.70184115 .00011135 00000-0 46598-3 0 9990 2 20580 28.4660 144.9040 0001971 342.5082 17.5443 15.21934322706040 ISS (ZARYA) 1 25544U 98067A 24360.24680392 .00023336 00000-0 41268-3 0 9990 2 25544 51.6391 88.7493 0005267 3.7818 43.6325 15.50195163488181 CXO 1 25867U 99040B 24360.90536753 .00000455 00000-0 00000-0 0 9997 2 25867 45.5713 139.1047 8668967 305.6017 0.3178 0.37809427 15287 ...Continue Reading

[TLELIST] Current TLEs

December 24th 2024 PDT

HST 1 20580U 90037B 24358.58706621 .00009108 00000-0 37999-3 0 9999 2 20580 28.4661 152.4223 0001834 327.1659 32.8821 15.21907643705871 ISS (ZARYA) 1 25544U 98067A 24359.24603170 .00024206 00000-0 42839-3 0 9999 2 25544 51.6378 93.7081 0005156 1.1535 217.6515 15.50150281488029 CXO 1 25867U 99040B 24360.90536753 .00000455 00000-0 00000-0 0 9997 2 25867 45.5713 139.1047 8668967 305.6017 0.3178 0.37809427 15287 ...Continue Reading

[TLELIST] Current TLEs

December 23rd 2024 PDT

HST 1 20580U 90037B 24357.86573146 .00009227 00000-0 38521-3 0 9997 2 20580 28.4661 157.2870 0001833 317.7344 42.3108 15.21894843706026 ISS (ZARYA) 1 25544U 98067A 24358.24706510 .00029807 00000-0 52606-3 0 9995 2 25544 51.6375 98.6599 0005144 358.2966 42.1497 15.50109997487875 CXO 1 25867U 99040B 24360.90467971 .00000455 00000-0 00000+0 0 9991 2 25867 45.5713 139.1045 8668968 305.6017 0.2241 0.37809614 26444 ...Continue Reading

[TLELIST] Current TLEs

December 22nd 2024 PDT

HST 1 20580U 90037B 24356.75092914 .00007939 00000-0 33048-3 0 9990 2 20580 28.4665 164.8049 0001881 303.4435 56.5978 15.21874575705591 ISS (ZARYA) 1 25544U 98067A 24357.47990317 .00059687 00000-0 10441-2 0 9998 2 25544 51.6411 102.4658 0004048 17.3220 59.2988 15.50043966487758 CXO 1 25867U 99040B 24358.25981192 .00000403 00000-0 00000-0 0 9996 2 25867 45.5383 139.2238 8674532 305.5524 0.1363 0.37810200 15274 ...Continue Reading
  • This mailing list is a public mailing list - anyone may join or leave, at any time.
  • This mailing list is announce-only.

International Space Station (ISS) / Hubble Space Telescope (HST) / Chandra X-Ray Observatory Orbital Data via EMAIL

Privacy Policy:

Private list